Weather Roundup
Issued by NWS Chicago, IL

Home | Current Version | Previous Version | Graphics & Text | Print | Product List | Glossary On
Versions: 1 2 3 4 5 6 7 8 9 10 11 12 13 14 15 16 17 18 19 20 21 22 23 24 25 26 27 28 29 30 31 32 33 34 35 36 37 38 39 40 41 42 43 44 45 46 47 48 49 50
000
NZUS59 KLOT 021508
HRRLOT

CHICAGO AREA WEATHER ROUNDUP
NATIONAL WEATHER SERVICE CHICAGO/ROMEOVILLE IL
1000 AM CDT SUN AUG 02 2015

NOTE: "FAIR" INDICATES FEW OR NO CLOUDS BELOW 12,000 FEET WITH NO
SIGNIFICANT WEATHER AND/OR OBSTRUCTIONS TO VISIBILITY.

* THESE STATIONS ARE NOT UNDER NWS QUALITY CONTROL. THEY ALSO MAY NOT
  REPORT WEATHER SUCH AS PRECIPITATION OR FOG.

ILZ005-006-012>014-019>023-021600-
NORTHEAST ILLINOIS

CITY           SKY/WX    TMP DP  RH WIND       PRES   REMARKS
OHARE          MOSUNNY   82  60  47 SW21G29   29.82F HX  82
MIDWAY         MOSUNNY   85  63  47 W17G26    29.83F HX  86
AURORA         SUNNY     80  63  55 SW16G24   29.85F HX  81
LANSING*       SUNNY     82  69  65 SW13G20   29.87F HX  85
JOLIET*        SUNNY     84  67  56 SW14      29.86F HX  86
WAUKEGAN       SUNNY     82  69  64 SW13G24   29.79F HX  85
DUPAGE AIRPORT SUNNY     81  63  54 SW16G25   29.84F HX  82
WHEELING       SUNNY     84  60  44 SW17G24   29.82F HX  84
KANKAKEE*      SUNNY     82  72  72 SW12G17   29.89F HX  87
MORRIS*        SUNNY     81  66  61 SW16      29.86S HX  83
LEWIS AIRPORT* SUNNY     81  64  55 SW20G29   29.86F HX  82
NORTHERLY IS     N/A     82  61  48 W13         N/A  HX  83
$$

WIZ051-052-058>065-066-070>072-021600-
SOUTHEAST WISCONSIN

CITY           SKY/WX    TMP DP  RH WIND       PRES   REMARKS
MILWAUKEE      PTSUNNY   83  68  60 SW23G29   29.75F HX  86
KENOSHA*       SUNNY     83  70  64 SW15      29.78F HX  87
RACINE*        SUNNY     84  68  58 SW13G28   29.78F HX  87
BURLINGTON     SUNNY     80  67  63 SW10      29.78F HX  82
WAUKESHA       MOSUNNY   81  66  61 SW12G23   29.76F HX  83
WEST BEND      PTSUNNY   79  68  69 SW12G26   29.73F HX  81
$$

INZ001>003-010>013-019-020-021600-
NORTHWEST INDIANA

CITY           SKY/WX    TMP DP  RH WIND       PRES   REMARKS
GARY*          MOSUNNY   82  70  65 SW14G28   29.86F HX  86
MICHIGAN CITY* NOT AVBL
RENSSELAER*    NOT AVBL
VALPARAISO     SUNNY     82  69  64 SW17      29.89F HX  85
$$

LMZ740>746-021600-
SOUTHERN LAKE MICHIGAN

STATION/POSITION TIME  SKY/WX   TEMP WIND        PRES    VSBY
                                AIR  DIR/SP/G
                 (UTC)          (F)  (DEG/KT/KT) (MB)    (MI)
HARRISON CRIB    1400            78  230/ 19/ 24   N/A
BURNHAM HARBOR   1500            83  200/  9/ 19   N/A
CALUMET HARBOR   1400            79  220/  8/ 15   N/A
BURNS HARBOR     1400            78  210/ 17/ 22 1011.9F
MICHIGAN CITY    1400            76  180/ 13/ 15   N/A
$$

ABBREVIATIONS USED IN REMARKS
   TC - TEMPERATURE IN CELSIUS
  WCI - WIND CHILL INDEX
   HX - HEAT INDEX
  VSB - VISIBILITY
$$



USA.gov is the U.S. government's official web portal to all federal, state and local government web resources and services.